sat.trackr.live / text

‹ back to catalog

STARLINK-5814

NORAD 55777 · 2023-028AN

PAYLOAD ACTIVE UNKNOWN

§ Identity

Operator
Country
US
Launch date
2023-03-03
Launch site
AFWTR
Launch vehicle
Mass (kg)
RCS (m²)

Purposes: comms

External: N2YO · Heavens-Above · Gunter

§ Orbital elements

Epoch: 2026-09-20T22:42:49.627872Z

Period
96.11 min
Inclination
69.9959°
Eccentricity
0.0002713
Mean motion
14.98338255 rev/d
Perigee alt
570.1 km
Apogee alt
573.9 km
Semi-major
6,950.2 km
B*
8.2558e-5
RAAN
92.0287°
Arg perigee
268.0075°
Mean anomaly
92.0773°
Rev number
19,578

§ Raw data

STARLINK-58141 55777U 23028AN  26263.94640773  .00000892  00000+0  82558-4 0  99952 55777  69.9959  92.0287 0002713 268.0075  92.0773 14.98338255195785

JSON: /api/v1/satellites/55777 · /tle

For live sub-satellite position, see the globe view (requires WebGL).

§ Visibility from observer

Set your observer location to see the next 7 days of passes ≥ 10°. The values pass through the URL so the page stays shareable.

No JS? Fill the form by hand. The geolocation button needs JavaScript.